| time (UTC) | temp F | wind direction | speed MPH | gust MPH | rain 1hr in | rain 24hr in | rain mn in | humidity % | barometer mb |
| 20260906011557 | 58 | 325 | 7.0 | 12.0 | 0.00 | 0.05 | 0.05 | 74 | 1021.0 |
| 20260906010044 | 59 | 337 | 7.0 | 13.0 | 0.00 | 0.05 | 0.05 | 72 | 1020.9 |
| 20260906004541 | 60 | 318 | 8.0 | 13.0 | 0.00 | 0.05 | 0.05 | 70 | 1021.1 |
| 20260906003041 | 60 | 324 | 7.0 | 13.0 | 0.00 | 0.05 | 0.05 | 72 | 1021.0 |
| 20260906001543 | 60 | 300 | 9.0 | 13.0 | 0.00 | 0.05 | 0.05 | 71 | 1021.0 |
| 20260906000051 | 60 | 310 | 7.0 | 13.0 | 0.00 | 0.05 | 0.05 | 69 | 1021.2 |
| 20260905234539 | 61 | 322 | 6.0 | 12.0 | 0.00 | 0.05 | 0.05 | 71 | 1021.2 |
| 20260905233041 | 60 | 360 | 8.0 | 17.0 | 0.00 | 0.05 | 0.05 | 71 | 1021.1 |
| 20260905231538 | 61 | 310 | 7.0 | 13.0 | 0.00 | 0.05 | 0.05 | 69 | 1021.0 |
| 20260905230037 | 60 | 350 | 8.0 | 14.0 | 0.00 | 0.05 | 0.05 | 73 | 1021.0 |
| 20260905224547 | 59 | 282 | 9.0 | 14.0 | 0.00 | 0.05 | 0.05 | 75 | 1021.0 |
| 20260905223036 | 61 | 288 | 10.0 | 15.0 | 0.00 | 0.05 | 0.05 | 74 | 1021.0 |
| 20260905221536 | 62 | 333 | 8.0 | 13.0 | 0.00 | 0.05 | 0.05 | 71 | 1021.0 |
| 20260905220034 | 61 | 333 | 4.0 | 12.0 | 0.00 | 0.05 | 0.05 | 72 | 1020.9 |
| 20260905214534 | 61 | 9 | 8.0 | 12.0 | 0.00 | 0.05 | 0.05 | 73 | 1021.0 |
| 20260905213033 | 59 | 311 | 7.0 | 12.0 | 0.00 | 0.05 | 0.05 | 74 | 1020.9 |
| 20260905211538 | 60 | 287 | 6.0 | 12.0 | 0.00 | 0.05 | 0.05 | 74 | 1021.0 |
| 20260905210031 | 60 | 300 | 5.0 | 11.0 | 0.00 | 0.05 | 0.05 | 77 | 1021.0 |
| 20260905204537 | 60 | 340 | 4.0 | 13.0 | 0.00 | 0.05 | 0.05 | 78 | 1021.0 |
| 20260905203031 | 59 | 335 | 8.0 | 14.0 | 0.00 | 0.05 | 0.05 | 80 | 1021.0 |
| 20260905201530 | 58 | 332 | 7.0 | 14.0 | 0.00 | 0.05 | 0.05 | 82 | 1021.2 |
| 20260905200032 | 58 | 328 | 9.0 | 15.0 | 0.00 | 0.05 | 0.05 | 83 | 1021.1 |
| 20260905194528 | 57 | 336 | 10.0 | 15.0 | 0.00 | 0.05 | 0.05 | 84 | 1021.1 |
| 20260905193028 | 57 | 341 | 11.0 | 14.0 | 0.00 | 0.05 | 0.05 | 85 | 1021.0 |
| 20260905191529 | 59 | 325 | 8.0 | 13.0 | 0.00 | 0.05 | 0.05 | 85 | 1021.1 |
| 20260905190027 | 58 | 311 | 9.0 | 13.0 | 0.00 | 0.05 | 0.05 | 88 | 1021.2 |
| 20260905184544 | 61 | 282 | 10.0 | 15.0 | 0.00 | 0.05 | 0.05 | 75 | 1021.3 |
| 20260905183039 | 60 | 219 | 2.0 | 4.0 | 0.00 | 0.05 | 0.05 | 70 | 1021.2 |
| 20260905181522 | 59 | 219 | 2.0 | 5.0 | 0.00 | 0.05 | 0.05 | 74 | 1021.2 |
| 20260905180019 | 58 | 219 | 2.0 | 4.0 | 0.00 | 0.05 | 0.05 | 79 | 1021.1 |
| 20260905174513 | 57 | 219 | 1.0 | 5.0 | 0.00 | 0.05 | 0.05 | 80 | 1021.1 |
| 20260905173011 | 56 | 251 | 3.0 | 5.0 | 0.00 | 0.05 | 0.05 | 84 | 1021.3 |
| 20260905171510 | 56 | 251 | 4.0 | 7.0 | 0.00 | 0.05 | 0.05 | 84 | 1021.2 |
| 20260905170010 | 56 | 240 | 7.0 | 11.0 | 0.00 | 0.05 | 0.05 | 82 | 1021.0 |
| 20260905164509 | 56 | 265 | 8.0 | 11.0 | 0.00 | 0.05 | 0.05 | 85 | 1021.2 |
| 20260905163006 | 56 | 205 | 3.0 | 5.0 | 0.00 | 0.05 | 0.05 | 82 | 1021.3 |
| 20260905161504 | 54 | 205 | 2.0 | 4.0 | 0.00 | 0.05 | 0.05 | 87 | 1021.0 |
| 20260905160003 | 54 | 205 | 2.0 | 4.0 | 0.00 | 0.05 | 0.05 | 87 | 1020.9 |
| 20260905154502 | 54 | 205 | 3.0 | 5.0 | 0.00 | 0.05 | 0.05 | 89 | 1020.6 |
| 20260905153002 | 53 | 205 | 1.0 | 5.0 | 0.01 | 0.05 | 0.05 | 92 | 1020.6 |
| 20260905151502 | 52 | 205 | 2.0 | 4.0 | 0.01 | 0.05 | 0.05 | 93 | 1020.8 |
| 20260905150100 | 51 | 205 | 3.0 | 8.0 | 0.02 | 0.05 | 0.05 | 92 | 1020.5 |
| 20260905144600 | 52 | 260 | 4.0 | 8.0 | 0.02 | 0.05 | 0.05 | 93 | 1020.6 |
| 20260905143100 | 50 | 241 | 3.0 | 4.0 | 0.03 | 0.04 | 0.04 | 93 | 1020.8 |
| 20260905141558 | 50 | 241 | 2.0 | 7.0 | 0.04 | 0.04 | 0.04 | 93 | 1021.0 |
| 20260905140057 | 49 | 259 | 6.0 | 8.0 | 0.03 | 0.03 | 0.03 | 92 | 1021.0 |
| 20260905134555 | 49 | 249 | 8.0 | 15.0 | 0.03 | 0.03 | 0.03 | 92 | 1021.2 |
| 20260905133053 | 49 | 236 | 5.0 | 14.0 | 0.01 | 0.01 | 0.01 | 91 | 1021.0 |
| 20260905131551 | 49 | 225 | 8.0 | 11.0 | 0.00 | 0.00 | 0.00 | 91 | 1020.6 |
| 20260905130050 | 49 | 227 | 3.0 | 6.0 | 0.00 | 0.00 | 0.00 | 91 | 1020.0 |
| 20260905124547 | 49 | 241 | 3.0 | 7.0 | 0.00 | 0.00 | 0.00 | 89 | 1019.6 |
| 20260905123050 | 48 | 227 | 6.0 | 10.0 | 0.00 | 0.00 | 0.00 | 88 | 1019.8 |
| 20260905121545 | 48 | 241 | 6.0 | 11.0 | 0.00 | 0.00 | 0.00 | 86 | 1019.8 |
| 20260905120047 | 47 | 227 | 7.0 | 10.0 | 0.00 | 0.00 | 0.00 | 87 | 1019.8 |
| 20260905114542 | 48 | 217 | 7.0 | 14.0 | 0.00 | 0.00 | 0.00 | 87 | 1019.6 |
| 20260905113049 | 45 | 215 | 5.0 | 8.0 | 0.00 | 0.00 | 0.00 | 86 | 1019.6 |
| 20260905111603 | 46 | 215 | 4.0 | 9.0 | 0.00 | 0.00 | 0.00 | 82 | 1019.5 |
| 20260905110041 | 49 | 213 | 5.0 | 12.0 | 0.00 | 0.00 | 0.00 | 79 | 1019.7 |
| 20260905104536 | 47 | 238 | 4.0 | 7.0 | 0.00 | 0.00 | 0.00 | 82 | 1019.5 |
| 20260905103037 | 47 | 239 | 5.0 | 7.0 | 0.00 | 0.00 | 0.00 | 82 | 1019.4 |
| 20260905101545 | 48 | 219 | 5.0 | 9.0 | 0.00 | 0.00 | 0.00 | 78 | 1019.2 |
| 20260905100029 | 50 | 180 | 4.0 | 8.0 | 0.00 | 0.00 | 0.00 | 76 | 1019.0 |
| 20260905094528 | 50 | 234 | 6.0 | 9.0 | 0.00 | 0.00 | 0.00 | 75 | 1019.1 |
| 20260905093028 | 49 | 228 | 4.0 | 6.0 | 0.00 | 0.00 | 0.00 | 76 | 1019.1 |
| 20260905091527 | 50 | 233 | 3.0 | 5.0 | 0.00 | 0.00 | 0.00 | 74 | 1018.6 |
| 20260905090023 | 52 | 192 | 3.0 | 5.0 | 0.00 | 0.00 | 0.00 | 72 | 1018.7 |
| 20260905084523 | 54 | 279 | 4.0 | 5.0 | 0.00 | 0.00 | 0.00 | 70 | 1018.1 |
| 20260905083022 | 52 | 279 | 3.0 | 7.0 | 0.00 | 0.00 | 0.00 | 70 | 1018.3 |
| 20260905081522 | 50 | 240 | 1.0 | 4.0 | 0.00 | 0.00 | 0.00 | 74 | 1018.9 |
| 20260905080132 | 52 | 240 | 4.0 | 8.0 | 0.00 | 0.00 | 0.00 | 70 | 1018.6 |
| 20260905074520 | 50 | 254 | 4.0 | 7.0 | 0.00 | 0.00 | 0.00 | 74 | 1018.7 |
| 20260905073017 | 53 | 211 | 4.0 | 8.0 | 0.00 | 0.00 | 0.00 | 67 | 1018.7 |
| 20260905071520 | 54 | 264 | 6.0 | 14.0 | 0.00 | 0.00 | 0.00 | 66 | 1018.4 |
| 20260905070018 | 54 | 255 | 8.0 | 14.0 | 0.00 | 0.00 | 0.00 | 67 | 1018.7 |
| 20260905064516 | 53 | 240 | 7.0 | 11.0 | 0.00 | 0.00 | 0.00 | 72 | 1018.8 |
| 20260905063013 | 52 | 225 | 6.0 | 9.0 | 0.00 | 0.00 | 0.00 | 74 | 1018.9 |
| 20260905061514 | 52 | 250 | 5.0 | 7.0 | 0.00 | 0.00 | 0.00 | 74 | 1018.6 |
| 20260905060006 | 55 | 238 | 8.0 | 11.0 | 0.00 | 0.00 | 0.00 | 67 | 1018.3 |
| 20260905054509 | 54 | 265 | 10.0 | 13.0 | 0.00 | 0.00 | 0.00 | 69 | 1018.3 |
| 20260905053008 | 54 | 250 | 6.0 | 9.0 | 0.00 | 0.00 | 0.00 | 70 | 1018.4 |
| 20260905051504 | 54 | 253 | 6.0 | 11.0 | 0.00 | 0.00 | 0.00 | 69 | 1018.6 |
| 20260905050008 | 55 | 247 | 5.0 | 8.0 | 0.00 | 0.00 | 0.00 | 66 | 1018.2 |
| 20260905044502 | 55 | 230 | 4.0 | 7.0 | 0.00 | 0.00 | 0.00 | 66 | 1018.5 |
| 20260905043101 | 56 | 225 | 7.0 | 10.0 | 0.00 | 0.00 | 0.00 | 63 | 1018.3 |
| 20260905041604 | 56 | 217 | 4.0 | 11.0 | 0.00 | 0.00 | 0.00 | 63 | 1017.9 |
| 20260905040105 | 57 | 284 | 8.0 | 13.0 | 0.00 | 0.00 | 0.00 | 61 | 1017.2 |
| 20260905034611 | 58 | 224 | 5.0 | 11.0 | 0.00 | 0.00 | 0.00 | 56 | 1017.9 |
| 20260905033115 | 58 | 275 | 8.0 | 11.0 | 0.00 | 0.00 | 0.00 | 56 | 1017.4 |
| 20260905031611 | 59 | 283 | 8.0 | 10.0 | 0.00 | 0.00 | 0.00 | 55 | 1017.6 |
| 20260905030059 | 58 | 286 | 7.0 | 12.0 | 0.00 | 0.00 | 0.00 | 56 | 1017.2 |
| 20260905024551 | 59 | 291 | 9.0 | 13.0 | 0.00 | 0.00 | 0.00 | 54 | 1016.8 |
| 20260905023100 | 60 | 278 | 7.0 | 12.0 | 0.00 | 0.00 | 0.00 | 53 | 1017.0 |
| 20260905021548 | 59 | 298 | 9.0 | 14.0 | 0.00 | 0.00 | 0.00 | 53 | 1016.2 |
| 20260905020047 | 59 | 297 | 5.0 | 11.0 | 0.00 | 0.00 | 0.00 | 52 | 1016.3 |
| 20260905014545 | 60 | 308 | 9.0 | 13.0 | 0.00 | 0.00 | 0.00 | 51 | 1016.1 |
| 20260905013045 | 62 | 339 | 9.0 | 13.0 | 0.00 | 0.00 | 0.00 | 49 | 1016.0 |